Time,TemperatureF,DewpointF,PressureIn,WindDirection,WindDirectionDegrees,WindSpeedMPH,WindSpeedGustMPH,Humidity,HourlyPrecipIn,Conditions,Clouds,dailyrainin,SoftwareType,DateUTC
2013-03-18 00:00:00,34.1,30.1,29.90,ENE,78,12.0,12.0,85,0.00,,,0.00,Wunderground v.1.15,2013-03-18 05:00:00,
2013-03-18 00:05:00,34.1,30.1,29.90,ENE,65,12.0,12.0,85,0.00,,,0.00,Wunderground v.1.15,2013-03-18 05:05:00,
2013-03-18 00:10:00,34.1,30.1,29.90,ENE,63,12.0,13.0,85,0.00,,,0.00,Wunderground v.1.15,2013-03-18 05:10:00,
2013-03-18 00:15:00,34.0,30.0,29.89,ENE,67,12.0,13.0,85,0.00,,,0.00,Wunderground v.1.15,2013-03-18 05:15:00,
2013-03-18 00:20:00,33.9,30.2,29.89,ENE,75,12.0,13.0,86,0.00,,,0.00,Wunderground v.1.15,2013-03-18 05:20:00,
2013-03-18 00:25:00,33.6,30.1,29.88,ENE,74,13.0,14.0,87,0.00,,,0.00,Wunderground v.1.15,2013-03-18 05:25:00,
2013-03-18 00:30:00,33.4,30.2,29.88,East,86,13.0,13.0,88,0.00,,,0.00,Wunderground v.1.15,2013-03-18 05:30:00,
2013-03-18 00:35:00,33.2,30.3,29.87,ENE,75,12.0,13.0,89,0.00,,,0.00,Wunderground v.1.15,2013-03-18 05:35:00,
2013-03-18 00:40:00,33.1,30.2,29.87,ENE,58,11.0,11.0,89,0.00,,,0.00,Wunderground v.1.15,2013-03-18 05:40:00,
2013-03-18 00:45:00,33.0,30.4,29.87,East,83,11.0,11.0,90,0.00,,,0.00,Wunderground v.1.15,2013-03-18 05:45:00,
2013-03-18 00:50:00,33.0,30.1,29.86,ENE,78,12.0,12.0,89,0.00,,,0.00,Wunderground v.1.15,2013-03-18 05:50:00,
2013-03-18 00:55:00,33.0,30.1,29.86,ENE,63,12.0,12.0,89,0.00,,,0.00,Wunderground v.1.15,2013-03-18 05:55:00,
2013-03-18 01:00:00,33.0,30.1,29.86,ENE,68,11.0,11.0,89,0.00,,,0.00,Wunderground v.1.15,2013-03-18 06:00:00,
2013-03-18 01:05:00,33.0,30.1,29.86,East,90,11.0,11.0,89,0.00,,,0.00,Wunderground v.1.15,2013-03-18 06:05:00,
2013-03-18 01:10:00,33.0,30.4,29.86,East,86,11.0,12.0,90,0.00,,,0.00,Wunderground v.1.15,2013-03-18 06:10:00,
2013-03-18 01:15:00,32.9,30.3,29.86,ENE,64,10.0,12.0,90,0.00,,,0.00,Wunderground v.1.15,2013-03-18 06:15:00,
2013-03-18 01:20:00,32.9,30.3,29.86,ENE,65,10.0,11.0,90,0.00,,,0.00,Wunderground v.1.15,2013-03-18 06:20:00,
2013-03-18 01:25:00,32.9,30.3,29.85,ENE,71,10.0,14.0,90,0.00,,,0.00,Wunderground v.1.15,2013-03-18 06:25:00,
2013-03-18 01:30:00,32.9,30.3,29.84,ENE,65,11.0,14.0,90,0.00,,,0.00,Wunderground v.1.15,2013-03-18 06:30:00,
2013-03-18 01:35:00,32.8,30.2,29.84,ENE,73,12.0,14.0,90,0.00,,,0.00,Wunderground v.1.15,2013-03-18 06:35:00,
2013-03-18 01:40:00,32.8,30.2,29.83,ENE,70,12.0,14.0,90,0.00,,,0.00,Wunderground v.1.15,2013-03-18 06:40:00,
2013-03-18 01:45:00,32.8,30.2,29.83,East,87,13.0,14.0,90,0.00,,,0.00,Wunderground v.1.15,2013-03-18 06:45:00,
2013-03-18 01:50:00,32.8,30.5,29.84,ENE,75,13.0,13.0,91,0.00,,,0.00,Wunderground v.1.15,2013-03-18 06:50:00,
2013-03-18 01:55:00,32.7,30.4,29.83,ENE,61,12.0,13.0,91,0.00,,,0.00,Wunderground v.1.15,2013-03-18 06:55:00,
2013-03-18 02:00:00,32.7,30.6,29.83,ENE,75,11.0,11.0,92,0.00,,,0.00,Wunderground v.1.15,2013-03-18 07:00:00,
2013-03-18 02:05:00,32.6,30.5,29.83,East,87,11.0,11.0,92,0.00,,,0.00,Wunderground v.1.15,2013-03-18 07:05:00,
2013-03-18 02:10:00,32.6,30.5,29.82,ENE,73,11.0,11.0,92,0.00,,,0.00,Wunderground v.1.15,2013-03-18 07:10:00,
2013-03-18 02:15:00,32.5,30.4,29.82,NE,49,11.0,11.0,92,0.00,,,0.00,Wunderground v.1.15,2013-03-18 07:15:00,
2013-03-18 02:20:00,32.5,30.4,29.82,East,83,11.0,11.0,92,0.00,,,0.00,Wunderground v.1.15,2013-03-18 07:20:00,
2013-03-18 02:25:00,32.5,30.4,29.81,ENE,63,12.0,13.0,92,0.00,,,0.00,Wunderground v.1.15,2013-03-18 07:25:00,
2013-03-18 02:30:00,32.4,30.3,29.81,ESE,105,12.0,12.0,92,0.00,,,0.00,Wunderground v.1.15,2013-03-18 07:30:00,
2013-03-18 02:35:00,32.5,30.4,29.81,ENE,65,11.0,12.0,92,0.00,,,0.00,Wunderground v.1.15,2013-03-18 07:35:00,
2013-03-18 02:40:00,32.4,30.3,29.81,ENE,68,10.0,14.0,92,0.00,,,0.00,Wunderground v.1.15,2013-03-18 07:40:00,
2013-03-18 02:45:00,32.5,30.4,29.81,East,85,10.0,14.0,92,0.00,,,0.00,Wunderground v.1.15,2013-03-18 07:45:00,
2013-03-18 02:50:00,32.4,30.3,29.81,ENE,60,9.0,9.0,92,0.00,,,0.00,Wunderground v.1.15,2013-03-18 07:50:00,
2013-03-18 02:55:00,32.4,30.3,29.81,ENE,58,8.0,9.0,92,0.00,,,0.00,Wunderground v.1.15,2013-03-18 07:55:00,
2013-03-18 03:00:00,32.4,30.3,29.81,ENE,58,8.0,8.0,92,0.00,,,0.00,Wunderground v.1.15,2013-03-18 08:00:00,
2013-03-18 03:05:00,32.4,30.3,29.80,NE,55,8.0,9.0,92,0.00,,,0.00,Wunderground v.1.15,2013-03-18 08:05:00,
2013-03-18 03:10:00,32.3,30.2,29.80,ENE,68,7.0,11.0,92,0.00,,,0.00,Wunderground v.1.15,2013-03-18 08:10:00,
2013-03-18 03:15:00,32.3,30.2,29.80,NE,46,8.0,11.0,92,0.00,,,0.00,Wunderground v.1.15,2013-03-18 08:15:00,
2013-03-18 03:20:00,32.3,30.5,29.80,NE,49,8.0,8.0,93,0.00,,,0.00,Wunderground v.1.15,2013-03-18 08:20:00,
2013-03-18 03:25:00,32.3,30.5,29.79,ENE,65,8.0,8.0,93,0.00,,,0.00,Wunderground v.1.15,2013-03-18 08:25:00,
2013-03-18 03:30:00,32.3,30.5,29.79,NE,56,8.0,9.0,93,0.00,,,0.00,Wunderground v.1.15,2013-03-18 08:30:00,
2013-03-18 03:35:00,32.3,30.5,29.78,ENE,61,7.0,9.0,93,0.00,,,0.00,Wunderground v.1.15,2013-03-18 08:35:00,
2013-03-18 03:40:00,32.3,30.5,29.78,ENE,60,8.0,10.0,93,0.00,,,0.00,Wunderground v.1.15,2013-03-18 08:40:00,
2013-03-18 03:45:00,32.2,30.4,29.78,ENE,65,8.0,10.0,93,0.00,,,0.00,Wunderground v.1.15,2013-03-18 08:45:00,
2013-03-18 03:50:00,32.2,30.4,29.78,ENE,60,8.0,8.0,93,0.00,,,0.00,Wunderground v.1.15,2013-03-18 08:50:00,
2013-03-18 03:55:00,32.2,30.4,29.78,ENE,57,8.0,8.0,93,0.00,,,0.00,Wunderground v.1.15,2013-03-18 08:55:00,
2013-03-18 04:00:00,32.2,30.4,29.78,ENE,63,8.0,8.0,93,0.00,,,0.00,Wunderground v.1.15,2013-03-18 09:00:00,
2013-03-18 04:10:00,32.2,30.4,29.77,ENE,63,9.0,9.0,93,0.00,,,0.00,Wunderground v.1.15,2013-03-18 09:10:00,
2013-03-18 04:15:00,32.2,30.4,29.77,ENE,68,9.0,9.0,93,0.00,,,0.00,Wunderground v.1.15,2013-03-18 09:15:00,
2013-03-18 04:20:00,32.2,30.4,29.77,ENE,72,8.0,8.0,93,0.00,,,0.00,Wunderground v.1.15,2013-03-18 09:20:00,
2013-03-18 04:25:00,32.1,30.3,29.76,ENE,71,8.0,8.0,93,0.00,,,0.00,Wunderground v.1.15,2013-03-18 09:25:00,
2013-03-18 04:35:00,32.1,30.6,29.76,ENE,67,10.0,11.0,94,0.00,,,0.00,Wunderground v.1.15,2013-03-18 09:35:00,
2013-03-18 04:40:00,32.1,30.6,29.75,ENE,68,10.0,10.0,94,0.00,,,0.00,Wunderground v.1.15,2013-03-18 09:40:00,
2013-03-18 04:45:00,32.0,30.5,29.75,ENE,63,9.0,11.0,94,0.00,,,0.00,Wunderground v.1.15,2013-03-18 09:45:00,
2013-03-18 04:50:00,32.0,30.5,29.75,East,86,9.0,9.0,94,0.00,,,0.00,Wunderground v.1.15,2013-03-18 09:50:00,
2013-03-18 04:55:00,32.0,30.5,29.75,ENE,68,9.0,9.0,94,0.00,,,0.00,Wunderground v.1.15,2013-03-18 09:55:00,
2013-03-18 05:00:00,31.9,30.4,29.75,East,89,9.0,11.0,94,0.00,,,0.00,Wunderground v.1.15,2013-03-18 10:00:00,
2013-03-18 05:05:00,31.9,30.4,29.75,ENE,60,9.0,12.0,94,0.00,,,0.00,Wunderground v.1.15,2013-03-18 10:05:00,
2013-03-18 05:15:00,31.9,30.4,29.75,NE,53,9.0,9.0,94,0.00,,,0.00,Wunderground v.1.15,2013-03-18 10:15:00,
2013-03-18 05:20:00,31.9,30.4,29.75,ENE,63,8.0,9.0,94,0.00,,,0.00,Wunderground v.1.15,2013-03-18 10:20:00,
2013-03-18 05:25:00,31.9,30.4,29.75,ENE,63,9.0,9.0,94,0.00,,,0.00,Wunderground v.1.15,2013-03-18 10:25:00,
2013-03-18 05:35:00,31.9,30.4,29.75,ENE,60,9.0,10.0,94,0.00,,,0.00,Wunderground v.1.15,2013-03-18 10:35:00,
2013-03-18 05:45:00,31.9,30.4,29.75,ENE,68,9.0,9.0,94,0.00,,,0.00,Wunderground v.1.15,2013-03-18 10:45:00,
2013-03-18 05:50:00,31.9,30.4,29.74,ENE,61,8.0,8.0,94,0.00,,,0.00,Wunderground v.1.15,2013-03-18 10:50:00,
2013-03-18 05:55:00,31.9,30.4,29.74,ENE,72,8.0,11.0,94,0.00,,,0.00,Wunderground v.1.15,2013-03-18 10:55:00,
2013-03-18 06:00:00,31.8,30.3,29.73,ENE,68,10.0,10.0,94,0.00,,,0.00,Wunderground v.1.15,2013-03-18 11:00:00,
2013-03-18 06:05:00,31.8,30.3,29.72,ENE,58,11.0,11.0,94,0.00,,,0.00,Wunderground v.1.15,2013-03-18 11:05:00,
2013-03-18 06:15:00,31.8,30.3,29.71,ENE,63,11.0,11.0,94,0.00,,,0.00,Wunderground v.1.15,2013-03-18 11:15:00,
2013-03-18 06:25:00,31.7,30.2,29.72,ENE,70,9.0,10.0,94,0.00,,,0.00,Wunderground v.1.15,2013-03-18 11:25:00,
2013-03-18 06:30:00,31.7,30.2,29.72,ENE,76,9.0,10.0,94,0.00,,,0.00,Wunderground v.1.15,2013-03-18 11:30:00,
2013-03-18 06:35:00,31.7,30.2,29.72,ENE,60,9.0,12.0,94,0.00,,,0.00,Wunderground v.1.15,2013-03-18 11:35:00,
2013-03-18 06:40:00,31.7,30.2,29.72,ENE,60,9.0,9.0,94,0.00,,,0.00,Wunderground v.1.15,2013-03-18 11:40:00,
2013-03-18 06:45:00,31.7,30.2,29.72,ENE,67,8.0,9.0,94,0.00,,,0.00,Wunderground v.1.15,2013-03-18 11:45:00,
2013-03-18 06:50:00,31.7,30.2,29.72,NE,55,8.0,8.0,94,0.00,,,0.00,Wunderground v.1.15,2013-03-18 11:50:00,
2013-03-18 06:55:00,31.6,30.1,29.72,ENE,75,8.0,8.0,94,0.00,,,0.00,Wunderground v.1.15,2013-03-18 11:55:00,
2013-03-18 07:00:00,31.7,30.2,29.72,ENE,62,9.0,9.0,94,0.00,,,0.00,Wunderground v.1.15,2013-03-18 12:00:00,
2013-03-18 07:10:00,31.7,30.2,29.73,ENE,68,6.0,8.0,94,0.00,,,0.00,Wunderground v.1.15,2013-03-18 12:10:00,
2013-03-18 07:15:00,31.7,30.2,29.73,ENE,63,6.0,8.0,94,0.00,,,0.00,Wunderground v.1.15,2013-03-18 12:15:00,
2013-03-18 07:20:00,31.7,30.2,29.73,ENE,65,7.0,9.0,94,0.00,,,0.00,Wunderground v.1.15,2013-03-18 12:20:00,
2013-03-18 07:25:00,31.6,30.1,29.73,ENE,63,7.0,9.0,94,0.00,,,0.00,Wunderground v.1.15,2013-03-18 12:25:00,
2013-03-18 07:35:00,31.6,30.1,29.72,NE,55,7.0,7.0,94,0.00,,,0.00,Wunderground v.1.15,2013-03-18 12:35:00,
2013-03-18 07:40:00,31.6,30.1,29.72,ENE,78,7.0,7.0,94,0.00,,,0.00,Wunderground v.1.15,2013-03-18 12:40:00,
2013-03-18 07:45:00,31.5,30.0,29.72,ENE,60,8.0,9.0,94,0.00,,,0.00,Wunderground v.1.15,2013-03-18 12:45:00,
2013-03-18 07:50:00,31.5,30.0,29.71,ENE,59,8.0,8.0,94,0.00,,,0.00,Wunderground v.1.15,2013-03-18 12:50:00,
2013-03-18 08:00:00,31.5,30.0,29.71,ENE,63,8.0,8.0,94,0.00,,,0.00,Wunderground v.1.15,2013-03-18 13:00:00,
2013-03-18 08:10:00,31.4,29.9,29.71,ENE,61,7.0,7.0,94,0.00,,,0.00,Wunderground v.1.15,2013-03-18 13:10:00,
2013-03-18 08:15:00,31.4,29.9,29.71,ENE,61,7.0,7.0,94,0.00,,,0.00,Wunderground v.1.15,2013-03-18 13:15:00,
2013-03-18 08:20:00,31.4,29.9,29.71,ENE,58,7.0,7.0,94,0.00,,,0.00,Wunderground v.1.15,2013-03-18 13:20:00,
2013-03-18 08:25:00,31.4,29.9,29.71,East,87,6.0,7.0,94,0.00,,,0.00,Wunderground v.1.15,2013-03-18 13:25:00,
2013-03-18 08:30:00,31.4,29.9,29.71,NE,49,6.0,6.0,94,0.00,,,0.00,Wunderground v.1.15,2013-03-18 13:30:00,
2013-03-18 08:35:00,31.4,30.1,29.72,ENE,63,6.0,6.0,95,0.00,,,0.00,Wunderground v.1.15,2013-03-18 13:35:00,
2013-03-18 08:40:00,31.4,30.1,29.72,ENE,63,5.0,5.0,95,0.00,,,0.00,Wunderground v.1.15,2013-03-18 13:40:00,
2013-03-18 08:45:00,31.4,30.1,29.73,East,82,5.0,5.0,95,0.00,,,0.00,Wunderground v.1.15,2013-03-18 13:45:00,
2013-03-18 08:50:00,31.5,30.2,29.73,ENE,67,3.0,3.0,95,0.00,,,0.00,Wunderground v.1.15,2013-03-18 13:50:00,
2013-03-18 08:55:00,31.5,30.2,29.73,East,79,2.0,3.0,95,0.00,,,0.00,Wunderground v.1.15,2013-03-18 13:55:00,
2013-03-18 09:00:00,31.5,30.2,29.72,East,93,3.0,3.0,95,0.00,,,0.00,Wunderground v.1.15,2013-03-18 14:00:00,
2013-03-18 09:05:00,31.6,30.3,29.71,ENE,76,3.0,5.0,95,0.00,,,0.00,Wunderground v.1.15,2013-03-18 14:05:00,
2013-03-18 09:10:00,31.6,30.3,29.71,ENE,60,4.0,5.0,95,0.00,,,0.00,Wunderground v.1.15,2013-03-18 14:10:00,
2013-03-18 09:15:00,31.6,30.3,29.72,NNE,33,4.0,5.0,95,0.00,,,0.00,Wunderground v.1.15,2013-03-18 14:15:00,
2013-03-18 09:25:00,31.7,30.4,29.72,NE,35,0.0,1.0,95,0.00,,,0.00,Wunderground v.1.15,2013-03-18 14:25:00,
2013-03-18 09:30:00,31.7,30.4,29.72,NE,35,0.0,0.0,95,0.00,,,0.00,Wunderground v.1.15,2013-03-18 14:30:00,
2013-03-18 09:40:00,31.7,30.4,29.72,NE,37,0.0,0.0,95,0.00,,,0.00,Wunderground v.1.15,2013-03-18 14:40:00,
2013-03-18 09:45:00,31.8,30.5,29.71,NNE,27,0.0,0.0,95,0.00,,,0.00,Wunderground v.1.15,2013-03-18 14:45:00,
2013-03-18 09:50:00,31.8,30.5,29.71,NE,34,1.0,1.0,95,0.00,,,0.00,Wunderground v.1.15,2013-03-18 14:50:00,
2013-03-18 09:55:00,31.9,30.6,29.70,NNE,30,1.0,1.0,95,0.00,,,0.00,Wunderground v.1.15,2013-03-18 14:55:00,
2013-03-18 10:00:00,32.0,30.7,29.70,NNW,339,1.0,1.0,95,0.00,,,0.00,Wunderground v.1.15,2013-03-18 15:00:00,
2013-03-18 10:05:00,32.1,30.8,29.69,NNE,33,1.0,2.0,95,0.00,,,0.00,Wunderground v.1.15,2013-03-18 15:05:00,
2013-03-18 10:15:00,32.3,31.0,29.69,NNE,15,2.0,3.0,95,0.00,,,0.00,Wunderground v.1.15,2013-03-18 15:15:00,
2013-03-18 10:20:00,32.3,31.0,29.69,NE,41,2.0,2.0,95,0.00,,,0.00,Wunderground v.1.15,2013-03-18 15:20:00,
2013-03-18 10:25:00,32.4,31.1,29.70,West,267,1.0,2.0,95,0.00,,,0.00,Wunderground v.1.15,2013-03-18 15:25:00,
2013-03-18 10:30:00,32.4,31.1,29.71,WSW,249,1.0,1.0,95,0.00,,,0.00,Wunderground v.1.15,2013-03-18 15:30:00,
2013-03-18 10:35:00,32.5,31.2,29.72,WSW,242,1.0,2.0,95,0.00,,,0.00,Wunderground v.1.15,2013-03-18 15:35:00,
2013-03-18 10:40:00,32.6,31.3,29.72,NW,304,1.0,3.0,95,0.00,,,0.00,Wunderground v.1.15,2013-03-18 15:40:00,
2013-03-18 10:45:00,32.6,31.1,29.72,WNW,296,2.0,3.0,94,0.00,,,0.00,Wunderground v.1.15,2013-03-18 15:45:00,
2013-03-18 10:50:00,32.7,31.2,29.71,WSW,245,2.0,2.0,94,0.00,,,0.00,Wunderground v.1.15,2013-03-18 15:50:00,
2013-03-18 10:55:00,32.9,31.4,29.72,WSW,249,2.0,2.0,94,0.00,,,0.00,Wunderground v.1.15,2013-03-18 15:55:00,
2013-03-18 11:00:00,32.9,31.4,29.71,WSW,242,1.0,1.0,94,0.00,,,0.00,Wunderground v.1.15,2013-03-18 16:00:00,
2013-03-18 11:05:00,33.0,31.5,29.71,SW,235,1.0,1.0,94,0.00,,,0.00,Wunderground v.1.15,2013-03-18 16:05:00,
2013-03-18 11:10:00,33.2,31.7,29.71,West,265,1.0,3.0,94,0.00,,,0.00,Wunderground v.1.15,2013-03-18 16:10:00,
2013-03-18 11:15:00,33.2,31.7,29.72,West,263,1.0,3.0,94,0.00,,,0.00,Wunderground v.1.15,2013-03-18 16:15:00,
2013-03-18 11:20:00,33.2,31.7,29.72,WSW,255,2.0,3.0,94,0.00,,,0.00,Wunderground v.1.15,2013-03-18 16:20:00,
2013-03-18 11:25:00,33.3,31.8,29.72,WSW,250,2.0,4.0,94,0.00,,,0.00,Wunderground v.1.15,2013-03-18 16:25:00,
2013-03-18 11:30:00,33.4,31.9,29.72,WSW,243,3.0,5.0,94,0.00,,,0.00,Wunderground v.1.15,2013-03-18 16:30:00,
2013-03-18 11:35:00,33.4,31.9,29.73,WSW,250,4.0,5.0,94,0.00,,,0.00,Wunderground v.1.15,2013-03-18 16:35:00,
2013-03-18 11:45:00,33.6,32.1,29.71,West,267,4.0,5.0,94,0.00,,,0.00,Wunderground v.1.15,2013-03-18 16:45:00,
2013-03-18 11:50:00,33.6,32.1,29.71,SW,236,3.0,3.0,94,0.00,,,0.00,Wunderground v.1.15,2013-03-18 16:50:00,
2013-03-18 11:55:00,33.9,32.4,29.71,WSW,245,2.0,3.0,94,0.00,,,0.00,Wunderground v.1.15,2013-03-18 16:55:00,
2013-03-18 12:00:00,33.9,32.4,29.71,West,263,3.0,3.0,94,0.00,,,0.00,Wunderground v.1.15,2013-03-18 17:00:00,
2013-03-18 12:05:00,34.0,32.5,29.71,WSW,251,3.0,3.0,94,0.00,,,0.00,Wunderground v.1.15,2013-03-18 17:05:00,
2013-03-18 12:15:00,34.2,32.9,29.70,WSW,255,2.0,4.0,95,0.00,,,0.00,Wunderground v.1.15,2013-03-18 17:15:00,
2013-03-18 12:20:00,34.4,33.1,29.71,NW,318,3.0,3.0,95,0.00,,,0.00,Wunderground v.1.15,2013-03-18 17:20:00,
2013-03-18 12:25:00,34.6,33.3,29.70,SW,232,3.0,5.0,95,0.00,,,0.00,Wunderground v.1.15,2013-03-18 17:25:00,
2013-03-18 12:30:00,34.6,33.3,29.70,West,260,4.0,7.0,95,0.00,,,0.00,Wunderground v.1.15,2013-03-18 17:30:00,
2013-03-18 12:35:00,34.7,33.2,29.70,West,262,5.0,7.0,94,0.00,,,0.00,Wunderground v.1.15,2013-03-18 17:35:00,
2013-03-18 12:40:00,35.2,33.9,29.70,SW,228,4.0,5.0,95,0.00,,,0.00,Wunderground v.1.15,2013-03-18 17:40:00,
2013-03-18 12:45:00,35.3,33.7,29.70,West,281,5.0,5.0,94,0.00,,,0.00,Wunderground v.1.15,2013-03-18 17:45:00,
2013-03-18 12:55:00,35.5,33.9,29.71,WSW,253,5.0,6.0,94,0.00,,,0.00,Wunderground v.1.15,2013-03-18 17:55:00,
2013-03-18 13:00:00,35.7,34.1,29.71,WSW,257,6.0,7.0,94,0.00,,,0.00,Wunderground v.1.15,2013-03-18 18:00:00,
2013-03-18 13:05:00,35.8,34.2,29.71,West,274,6.0,7.0,94,0.00,,,0.00,Wunderground v.1.15,2013-03-18 18:05:00,
2013-03-18 13:10:00,36.0,34.4,29.71,WSW,240,6.0,9.0,94,0.00,,,0.00,Wunderground v.1.15,2013-03-18 18:10:00,
2013-03-18 13:15:00,36.3,34.5,29.71,West,279,6.0,11.0,93,0.00,,,0.00,Wunderground v.1.15,2013-03-18 18:15:00,
2013-03-18 13:20:00,36.5,34.7,29.72,WSW,255,5.0,5.0,93,0.00,,,0.00,Wunderground v.1.15,2013-03-18 18:20:00,
2013-03-18 13:25:00,36.7,34.9,29.72,WSW,255,5.0,5.0,93,0.00,,,0.00,Wunderground v.1.15,2013-03-18 18:25:00,
2013-03-18 13:35:00,36.9,35.1,29.71,West,269,6.0,8.0,93,0.00,,,0.00,Wunderground v.1.15,2013-03-18 18:35:00,
2013-03-18 13:40:00,37.0,34.9,29.72,WSW,255,6.0,6.0,92,0.00,,,0.00,Wunderground v.1.15,2013-03-18 18:40:00,
2013-03-18 13:45:00,37.2,35.1,29.71,SW,235,7.0,7.0,92,0.00,,,0.00,Wunderground v.1.15,2013-03-18 18:45:00,
2013-03-18 13:50:00,37.4,35.3,29.72,West,264,6.0,10.0,92,0.00,,,0.00,Wunderground v.1.15,2013-03-18 18:50:00,
2013-03-18 13:55:00,37.5,35.4,29.71,West,277,6.0,10.0,92,0.00,,,0.00,Wunderground v.1.15,2013-03-18 18:55:00,
2013-03-18 14:00:00,37.6,35.2,29.72,WSW,238,6.0,6.0,91,0.00,,,0.00,Wunderground v.1.15,2013-03-18 19:00:00,
2013-03-18 14:05:00,37.7,35.3,29.72,WSW,249,6.0,11.0,91,0.00,,,0.00,Wunderground v.1.15,2013-03-18 19:05:00,
2013-03-18 14:10:00,37.7,35.3,29.72,WSW,253,7.0,9.0,91,0.00,,,0.00,Wunderground v.1.15,2013-03-18 19:10:00,
2013-03-18 14:15:00,37.7,35.0,29.71,West,260,7.0,11.0,90,0.00,,,0.00,Wunderground v.1.15,2013-03-18 19:15:00,
2013-03-18 14:20:00,37.7,35.3,29.71,WSW,257,7.0,7.0,91,0.00,,,0.00,Wunderground v.1.15,2013-03-18 19:20:00,
2013-03-18 14:25:00,37.7,35.0,29.71,WNW,287,6.0,7.0,90,0.00,,,0.00,Wunderground v.1.15,2013-03-18 19:25:00,
2013-03-18 14:30:00,37.8,35.4,29.71,West,277,6.0,6.0,91,0.00,,,0.00,Wunderground v.1.15,2013-03-18 19:30:00,
2013-03-18 14:35:00,37.9,35.5,29.71,NNE,26,7.0,8.0,91,0.00,,,0.00,Wunderground v.1.15,2013-03-18 19:35:00,
2013-03-18 14:45:00,38.0,35.3,29.71,West,274,7.0,7.0,90,0.00,,,0.00,Wunderground v.1.15,2013-03-18 19:45:00,
2013-03-18 14:50:00,38.0,35.3,29.71,West,262,6.0,9.0,90,0.00,,,0.00,Wunderground v.1.15,2013-03-18 19:50:00,
2013-03-18 14:55:00,38.0,35.0,29.71,WSW,245,6.0,9.0,89,0.00,,,0.00,Wunderground v.1.15,2013-03-18 19:55:00,
2013-03-18 15:00:00,38.0,35.0,29.71,WSW,245,6.0,13.0,89,0.00,,,0.00,Wunderground v.1.15,2013-03-18 20:00:00,
2013-03-18 15:05:00,38.2,35.2,29.71,NW,310,6.0,13.0,89,0.00,,,0.00,Wunderground v.1.15,2013-03-18 20:05:00,
2013-03-18 15:10:00,38.6,35.4,29.71,WNW,302,6.0,6.0,88,0.00,,,0.00,Wunderground v.1.15,2013-03-18 20:10:00,
2013-03-18 15:15:00,38.7,35.5,29.71,WSW,253,5.0,6.0,88,0.00,,,0.00,Wunderground v.1.15,2013-03-18 20:15:00,
2013-03-18 15:20:00,38.7,35.2,29.71,WSW,253,6.0,14.0,87,0.00,,,0.00,Wunderground v.1.15,2013-03-18 20:20:00,
2013-03-18 15:25:00,38.6,35.1,29.71,WNW,287,7.0,14.0,87,0.00,,,0.00,Wunderground v.1.15,2013-03-18 20:25:00,
2013-03-18 15:30:00,38.6,35.1,29.71,WSW,257,7.0,12.0,87,0.00,,,0.00,Wunderground v.1.15,2013-03-18 20:30:00,
2013-03-18 15:35:00,38.6,35.1,29.71,WNW,289,6.0,12.0,87,0.00,,,0.00,Wunderground v.1.15,2013-03-18 20:35:00,
2013-03-18 15:40:00,38.7,34.9,29.71,West,260,6.0,6.0,86,0.00,,,0.00,Wunderground v.1.15,2013-03-18 20:40:00,
2013-03-18 15:45:00,38.7,34.9,29.71,WNW,291,6.0,11.0,86,0.00,,,0.00,Wunderground v.1.15,2013-03-18 20:45:00,
2013-03-18 15:50:00,38.8,35.3,29.71,NW,309,6.0,6.0,87,0.00,,,0.00,Wunderground v.1.15,2013-03-18 20:50:00,
2013-03-18 15:55:00,38.9,35.1,29.71,West,273,6.0,10.0,86,0.00,,,0.00,Wunderground v.1.15,2013-03-18 20:55:00,
2013-03-18 16:00:00,38.9,35.4,29.71,WNW,283,6.0,6.0,87,0.00,,,0.00,Wunderground v.1.15,2013-03-18 21:00:00,
2013-03-18 16:05:00,38.8,35.3,29.72,WNW,299,6.0,8.0,87,0.00,,,0.00,Wunderground v.1.15,2013-03-18 21:05:00,
2013-03-18 16:10:00,38.9,35.4,29.72,WNW,293,6.0,8.0,87,0.00,,,0.00,Wunderground v.1.15,2013-03-18 21:10:00,
2013-03-18 16:15:00,39.3,35.8,29.72,WSW,249,7.0,8.0,87,0.00,,,0.00,Wunderground v.1.15,2013-03-18 21:15:00,
2013-03-18 16:20:00,39.5,35.1,29.72,WNW,283,7.0,9.0,84,0.00,,,0.00,Wunderground v.1.15,2013-03-18 21:20:00,
2013-03-18 16:25:00,39.7,34.7,29.72,NW,326,8.0,9.0,82,0.00,,,0.00,Wunderground v.1.15,2013-03-18 21:25:00,
2013-03-18 16:30:00,39.5,33.8,29.72,NW,304,9.0,10.0,80,0.00,,,0.00,Wunderground v.1.15,2013-03-18 21:30:00,
2013-03-18 16:35:00,39.7,34.0,29.72,WNW,284,9.0,10.0,80,0.00,,,0.00,Wunderground v.1.15,2013-03-18 21:35:00,
2013-03-18 16:40:00,39.8,33.8,29.73,WNW,293,8.0,8.0,79,0.00,,,0.00,Wunderground v.1.15,2013-03-18 21:40:00,
2013-03-18 16:45:00,40.0,33.4,29.73,WSW,257,8.0,8.0,77,0.00,,,0.00,Wunderground v.1.15,2013-03-18 21:45:00,
2013-03-18 16:50:00,39.8,33.2,29.74,WNW,293,7.0,7.0,77,0.00,,,0.00,Wunderground v.1.15,2013-03-18 21:50:00,
2013-03-18 16:55:00,39.5,32.9,29.74,West,281,7.0,9.0,77,0.00,,,0.00,Wunderground v.1.15,2013-03-18 21:55:00,
2013-03-18 17:00:00,39.3,32.4,29.74,WNW,299,8.0,8.0,76,0.00,,,0.00,Wunderground v.1.15,2013-03-18 22:00:00,
2013-03-18 17:05:00,39.2,31.9,29.74,WNW,302,9.0,9.0,75,0.00,,,0.00,Wunderground v.1.15,2013-03-18 22:05:00,
2013-03-18 17:10:00,39.3,32.0,29.74,NNW,337,9.0,9.0,75,0.00,,,0.00,Wunderground v.1.15,2013-03-18 22:10:00,
2013-03-18 17:15:00,38.4,31.5,29.75,WNW,293,10.0,17.0,76,0.00,,,0.00,Wunderground v.1.15,2013-03-18 22:15:00,
2013-03-18 17:20:00,37.7,30.8,29.75,WNW,287,11.0,11.0,76,0.00,,,0.00,Wunderground v.1.15,2013-03-18 22:20:00,
2013-03-18 17:25:00,37.1,29.9,29.75,WNW,302,11.0,11.0,75,0.00,,,0.00,Wunderground v.1.15,2013-03-18 22:25:00,
2013-03-18 17:30:00,37.1,30.2,29.75,NNW,340,11.0,11.0,76,0.00,,,0.00,Wunderground v.1.15,2013-03-18 22:30:00,
2013-03-18 17:35:00,37.3,30.4,29.76,West,271,9.0,11.0,76,0.00,,,0.00,Wunderground v.1.15,2013-03-18 22:35:00,
2013-03-18 17:40:00,36.9,29.4,29.76,NW,323,9.0,9.0,74,0.00,,,0.00,Wunderground v.1.15,2013-03-18 22:40:00,
2013-03-18 17:45:00,36.5,29.7,29.77,WNW,295,9.0,11.0,76,0.00,,,0.00,Wunderground v.1.15,2013-03-18 22:45:00,
2013-03-18 17:50:00,35.8,28.3,29.77,WSW,248,9.0,20.0,74,0.00,,,0.00,Wunderground v.1.15,2013-03-18 22:50:00,
2013-03-18 17:55:00,35.2,27.7,29.78,West,260,10.0,20.0,74,0.00,,,0.00,Wunderground v.1.15,2013-03-18 22:55:00,
2013-03-18 18:00:00,34.9,27.5,29.78,West,279,11.0,11.0,74,0.00,,,0.00,Wunderground v.1.15,2013-03-18 23:00:00,
2013-03-18 18:05:00,34.4,27.0,29.79,NNW,339,11.0,11.0,74,0.00,,,0.00,Wunderground v.1.15,2013-03-18 23:05:00,
2013-03-18 18:10:00,34.2,26.8,29.79,WNW,290,11.0,11.0,74,0.00,,,0.00,Wunderground v.1.15,2013-03-18 23:10:00,
2013-03-18 18:15:00,34.0,26.6,29.79,WNW,294,11.0,11.0,74,0.00,,,0.00,Wunderground v.1.15,2013-03-18 23:15:00,
2013-03-18 18:20:00,33.5,25.8,29.80,NW,319,12.0,12.0,73,0.00,,,0.00,Wunderground v.1.15,2013-03-18 23:20:00,
2013-03-18 18:25:00,33.1,25.4,29.80,WNW,294,10.0,12.0,73,0.00,,,0.00,Wunderground v.1.15,2013-03-18 23:25:00,
2013-03-18 18:30:00,32.5,24.8,29.81,NW,311,9.0,14.0,73,0.00,,,0.00,Wunderground v.1.15,2013-03-18 23:30:00,
2013-03-18 18:35:00,32.1,24.7,29.81,West,271,10.0,15.0,74,0.00,,,0.00,Wunderground v.1.15,2013-03-18 23:35:00,
2013-03-18 18:40:00,31.8,24.5,29.81,NW,312,10.0,10.0,74,0.00,,,0.00,Wunderground v.1.15,2013-03-18 23:40:00,
2013-03-18 18:45:00,31.7,24.7,29.82,NW,312,9.0,10.0,75,0.00,,,0.00,Wunderground v.1.15,2013-03-18 23:45:00,
2013-03-18 18:50:00,31.4,24.7,29.82,WNW,299,9.0,9.0,76,0.00,,,0.00,Wunderground v.1.15,2013-03-18 23:50:00,
2013-03-18 18:55:00,31.0,24.0,29.82,West,276,9.0,15.0,75,0.00,,,0.00,Wunderground v.1.15,2013-03-18 23:55:00,
2013-03-18 19:00:00,30.7,24.0,29.82,West,262,10.0,10.0,76,0.00,,,0.00,Wunderground v.1.15,2013-03-19 00:00:00,
2013-03-18 19:10:00,30.2,23.9,29.83,WNW,295,10.0,13.0,77,0.00,,,0.00,Wunderground v.1.15,2013-03-19 00:10:00,
2013-03-18 19:15:00,30.0,24.0,29.84,West,270,9.0,13.0,78,0.00,,,0.00,Wunderground v.1.15,2013-03-19 00:15:00,
2013-03-18 19:20:00,29.8,23.5,29.83,WNW,297,8.0,9.0,77,0.00,,,0.00,Wunderground v.1.15,2013-03-19 00:20:00,
2013-03-18 19:25:00,29.6,23.3,29.84,WNW,287,8.0,14.0,77,0.00,,,0.00,Wunderground v.1.15,2013-03-19 00:25:00,
2013-03-18 19:30:00,29.5,22.6,29.84,NNW,342,9.0,9.0,75,0.00,,,0.00,Wunderground v.1.15,2013-03-19 00:30:00,
2013-03-18 19:35:00,29.4,22.8,29.85,West,259,10.0,13.0,76,0.00,,,0.00,Wunderground v.1.15,2013-03-19 00:35:00,
2013-03-18 19:40:00,29.3,23.0,29.85,NW,318,10.0,10.0,77,0.00,,,0.00,Wunderground v.1.15,2013-03-19 00:40:00,
2013-03-18 19:45:00,29.1,22.2,29.86,NNE,19,9.0,10.0,75,0.00,,,0.00,Wunderground v.1.15,2013-03-19 00:45:00,
2013-03-18 19:50:00,29.0,22.1,29.86,WNW,285,9.0,9.0,75,0.00,,,0.00,Wunderground v.1.15,2013-03-19 00:50:00,
2013-03-18 19:55:00,28.8,21.9,29.87,NE,53,9.0,9.0,75,0.00,,,0.00,Wunderground v.1.15,2013-03-19 00:55:00,
2013-03-18 20:00:00,28.6,22.0,29.87,WNW,294,9.0,11.0,76,0.00,,,0.00,Wunderground v.1.15,2013-03-19 01:00:00,
2013-03-18 20:05:00,28.5,21.6,29.87,WNW,297,9.0,12.0,75,0.00,,,0.00,Wunderground v.1.15,2013-03-19 01:05:00,
2013-03-18 20:10:00,28.3,21.7,29.88,NW,321,9.0,9.0,76,0.00,,,0.00,Wunderground v.1.15,2013-03-19 01:10:00,
2013-03-18 20:15:00,28.0,20.8,29.88,NW,304,10.0,10.0,74,0.00,,,0.00,Wunderground v.1.15,2013-03-19 01:15:00,
2013-03-18 20:20:00,27.7,20.8,29.88,NW,304,10.0,10.0,75,0.00,,,0.00,Wunderground v.1.15,2013-03-19 01:20:00,
2013-03-18 20:25:00,27.4,19.9,29.88,WNW,297,10.0,10.0,73,0.00,,,0.00,Wunderground v.1.15,2013-03-19 01:25:00,
2013-03-18 20:30:00,27.3,20.1,29.89,NNW,333,10.0,10.0,74,0.00,,,0.00,Wunderground v.1.15,2013-03-19 01:30:00,
2013-03-18 20:35:00,27.3,20.4,29.89,WNW,288,8.0,10.0,75,0.00,,,0.00,Wunderground v.1.15,2013-03-19 01:35:00,
2013-03-18 20:40:00,27.2,20.3,29.89,WNW,297,9.0,9.0,75,0.00,,,0.00,Wunderground v.1.15,2013-03-19 01:40:00,
2013-03-18 20:45:00,27.1,20.2,29.89,WNW,302,9.0,9.0,75,0.00,,,0.00,Wunderground v.1.15,2013-03-19 01:45:00,
2013-03-18 20:50:00,27.1,20.2,29.90,WNW,294,9.0,15.0,75,0.00,,,0.00,Wunderground v.1.15,2013-03-19 01:50:00,
2013-03-18 20:55:00,27.1,20.2,29.90,West,278,10.0,15.0,75,0.00,,,0.00,Wunderground v.1.15,2013-03-19 01:55:00,
2013-03-18 21:00:00,27.0,20.1,29.91,NNE,29,9.0,11.0,75,0.00,,,0.00,Wunderground v.1.15,2013-03-19 02:00:00,
2013-03-18 21:10:00,26.8,19.9,29.91,NNW,348,10.0,10.0,75,0.00,,,0.00,Wunderground v.1.15,2013-03-19 02:10:00,
2013-03-18 21:15:00,26.8,19.9,29.91,WNW,296,9.0,10.0,75,0.00,,,0.00,Wunderground v.1.15,2013-03-19 02:15:00,
2013-03-18 21:20:00,26.7,19.8,29.91,NNW,332,8.0,8.0,75,0.00,,,0.00,Wunderground v.1.15,2013-03-19 02:20:00,
2013-03-18 21:25:00,26.5,19.3,29.91,NNW,345,10.0,16.0,74,0.00,,,0.00,Wunderground v.1.15,2013-03-19 02:25:00,
2013-03-18 21:30:00,26.4,19.2,29.91,NW,312,11.0,11.0,74,0.00,,,0.00,Wunderground v.1.15,2013-03-19 02:30:00,
2013-03-18 21:35:00,26.3,19.1,29.91,West,267,10.0,11.0,74,0.00,,,0.00,Wunderground v.1.15,2013-03-19 02:35:00,
2013-03-18 21:40:00,26.2,19.4,29.92,WNW,293,9.0,15.0,75,0.00,,,0.00,Wunderground v.1.15,2013-03-19 02:40:00,
2013-03-18 21:45:00,26.0,19.2,29.91,NW,326,9.0,15.0,75,0.00,,,0.00,Wunderground v.1.15,2013-03-19 02:45:00,
2013-03-18 21:50:00,25.9,19.4,29.92,WNW,293,8.0,8.0,76,0.00,,,0.00,Wunderground v.1.15,2013-03-19 02:50:00,
2013-03-18 21:55:00,25.8,19.3,29.92,WNW,284,7.0,8.0,76,0.00,,,0.00,Wunderground v.1.15,2013-03-19 02:55:00,
2013-03-18 22:00:00,25.7,19.2,29.92,WNW,302,7.0,7.0,76,0.00,,,0.00,Wunderground v.1.15,2013-03-19 03:00:00,
2013-03-18 22:05:00,25.7,18.9,29.92,NW,314,7.0,8.0,75,0.00,,,0.00,Wunderground v.1.15,2013-03-19 03:05:00,
2013-03-18 22:10:00,25.7,18.9,29.93,WSW,248,8.0,13.0,75,0.00,,,0.00,Wunderground v.1.15,2013-03-19 03:10:00,
2013-03-18 22:15:00,25.7,18.6,29.92,NW,304,7.0,13.0,74,0.00,,,0.00,Wunderground v.1.15,2013-03-19 03:15:00,
2013-03-18 22:20:00,25.7,17.9,29.92,West,278,8.0,8.0,72,0.00,,,0.00,Wunderground v.1.15,2013-03-19 03:20:00,
2013-03-18 22:30:00,25.8,17.7,29.93,WNW,293,10.0,12.0,71,0.00,,,0.00,Wunderground v.1.15,2013-03-19 03:30:00,
2013-03-18 22:35:00,25.9,17.8,29.93,West,279,9.0,12.0,71,0.00,,,0.00,Wunderground v.1.15,2013-03-19 03:35:00,
2013-03-18 22:40:00,25.9,17.5,29.93,WNW,290,9.0,9.0,70,0.00,,,0.00,Wunderground v.1.15,2013-03-19 03:40:00,
2013-03-18 22:50:00,26.1,18.3,29.93,WSW,255,8.0,8.0,72,0.00,,,0.00,Wunderground v.1.15,2013-03-19 03:50:00,
2013-03-18 22:55:00,26.2,18.4,29.93,WNW,285,7.0,8.0,72,0.00,,,0.00,Wunderground v.1.15,2013-03-19 03:55:00,
2013-03-18 23:00:00,26.3,18.2,29.93,NW,313,9.0,9.0,71,0.00,,,0.00,Wunderground v.1.15,2013-03-19 04:00:00,
2013-03-18 23:05:00,26.3,18.2,29.93,WSW,255,9.0,10.0,71,0.00,,,0.00,Wunderground v.1.15,2013-03-19 04:05:00,
2013-03-18 23:10:00,26.4,18.3,29.94,NW,319,9.0,10.0,71,0.00,,,0.00,Wunderground v.1.15,2013-03-19 04:10:00,
2013-03-18 23:15:00,26.4,18.3,29.93,WSW,255,9.0,10.0,71,0.00,,,0.00,Wunderground v.1.15,2013-03-19 04:15:00,
2013-03-18 23:20:00,26.5,18.4,29.94,WNW,294,9.0,9.0,71,0.00,,,0.00,Wunderground v.1.15,2013-03-19 04:20:00,
2013-03-18 23:25:00,26.5,18.4,29.94,NNW,346,8.0,9.0,71,0.00,,,0.00,Wunderground v.1.15,2013-03-19 04:25:00,
2013-03-18 23:30:00,26.5,17.7,29.94,WNW,293,9.0,12.0,69,0.00,,,0.00,Wunderground v.1.15,2013-03-19 04:30:00,
2013-03-18 23:35:00,26.5,17.7,29.94,WSW,250,11.0,12.0,69,0.00,,,0.00,Wunderground v.1.15,2013-03-19 04:35:00,
2013-03-18 23:40:00,26.4,17.9,29.93,NW,309,11.0,11.0,70,0.00,,,0.00,Wunderground v.1.15,2013-03-19 04:40:00,
2013-03-18 23:45:00,26.3,17.8,29.94,WNW,287,9.0,11.0,70,0.00,,,0.00,Wunderground v.1.15,2013-03-19 04:45:00,
2013-03-18 23:50:00,26.2,17.7,29.94,NW,314,9.0,9.0,70,0.00,,,0.00,Wunderground v.1.15,2013-03-19 04:50:00,
2013-03-18 23:55:00,26.0,17.9,29.94,West,259,8.0,10.0,71,0.00,,,0.00,Wunderground v.1.15,2013-03-19 04:55:00,